RH
47 43 41 40 38 36 35 34 34 34 33 32 32 30 29 29 28 28 30 34 37 41
49 46 43 42 40 39 37 35 34 34 34 33 31 30 29 27 28 31 34 38 38 39
45 47 46 45 42 39 38 37 36 35 35 34 32 30 28 29 31 32 35 38 36 41
44 46 48 48 46 44 43 40 39 38 37 35 32 32 32 32 32 32 32 33 36 40
46 46 47 49 50 49 48 47 44 43 40 37 38 36 36 35 33 34 33 37 40 40
47 47 47 49 51 52 52 51 50 47 45 42 40 38 38 39 38 38 40 40 40 39
51 49 48 48 49 54 55 55 54 51 48 46 42 43 43 42 41 41 41 39 37 39
52 51 50 50 53 53 54 55 55 53 50 49 49 48 44 45 47 44 43 42 44 44
60 56 55 54 55 56 58 60 61 59 58 55 54 57 55 51 49 49 48 49 50 47
63 62 62 60 63 63 67 65 63 67 68 65 59 55 56 50 47 43 34 28 26 20
69 69 68 67 67 66 68 70 70 68 66 64 62 56 45 29 22 18 16 16 16 16
73 73 71 70 68 70 69 70 69 68 62 58 46 27 21 19 18 17 18 18 18 19
75 76 75 72 71 72 69 68 65 62 52 37 26 23 21 21 21 22 21 21 23 24
79 79 77 75 76 72 66 63 62 50 33 28 26 24 24 25 26 26 27 29 32 34